When you browse on this site, cookies collect data to enhance your experience and personalize the content and advertising you see.
Visit our Privacy Policy to learn more. By continuing to use the site, you agree to this use of cookies and data.
  • In Hungary
  • List of Countries
  • For 7 days
  • Water Temperature
  • Weather Map
  • News
  • Weather Widgets
  • user-avatar
    Login

    Hourly Weather Bulatnovo

    Today, 20 October, Sunday

    Time Temperature Precipitation Wind Pressure Humidity
    00:00 +12°C° 0.1 mm 3 mps 750 mmHg 85%
    01:00 +12°C° 0.1 mm 3 mps 750 mmHg 85%
    02:00 +12°C° 0.1 mm 3 mps 750 mmHg 85%
    03:00 +12°C° 0 mm 3 mps 750 mmHg 86%
    04:00 +12°C° 0 mm 3 mps 750 mmHg 86%
    05:00 +12°C° 0 mm 3 mps 750 mmHg 86%
    06:00 +12°C° 0 mm 3 mps 750 mmHg 85%
    07:00 +12°C° 0.1 mm 3 mps 751 mmHg 86%
    08:00 +12°C° 0.1 mm 3 mps 751 mmHg 86%
    09:00 +12°C° 0 mm 3 mps 751 mmHg 88%
    10:00 +13°C° 0 mm 3 mps 751 mmHg 85%
    11:00 +13°C° 0 mm 3 mps 751 mmHg 83%
    12:00 +14°C° 0 mm 3 mps 751 mmHg 80%
    13:00 +16°C° 0 mm 3 mps 751 mmHg 77%
    14:00 +16°C° 0 mm 3 mps 751 mmHg 74%
    15:00 +17°C° 0 mm 2 mps 751 mmHg 77%
    16:00 +16°C° 0 mm 2 mps 751 mmHg 81%
    17:00 +15°C° 0 mm 2 mps 751 mmHg 85%
    18:00 +13°C° 0 mm 3 mps 750 mmHg 88%
    19:00 +13°C° 0.1 mm 3 mps 750 mmHg 89%
    20:00 +13°C° 0.1 mm 3 mps 751 mmHg 90%
    21:00 +13°C° 0.1 mm 3 mps 751 mmHg 90%
    22:00 +14°C° 0.8 mm 2 mps 750 mmHg 90%
    23:00 +14°C° 0.8 mm 2 mps 750 mmHg 91%

    Tomorrow, 21 October, Monday

    Time Temperature Precipitation Wind Pressure Humidity
    00:00 +14°C° 0.8 mm 2 mps 750 mmHg 91%
    01:00 +13°C° 0.2 mm 3 mps 750 mmHg 90%
    02:00 +12°C° 0.2 mm 3 mps 750 mmHg 89%
    03:00 +12°C° 0.2 mm 3 mps 750 mmHg 87%
    04:00 +12°C° 0 mm 3 mps 750 mmHg 87%
    05:00 +12°C° 0 mm 4 mps 749 mmHg 86%
    06:00 +11°C° 0 mm 4 mps 749 mmHg 86%
    07:00 +11°C° 0 mm 4 mps 749 mmHg 84%
    08:00 +10°C° 0 mm 5 mps 749 mmHg 81%
    09:00 +12°C° 0 mm 5 mps 749 mmHg 79%
    10:00 +12°C° 0 mm 5 mps 748 mmHg 77%
    11:00 +13°C° 0 mm 5 mps 748 mmHg 75%
    12:00 +14°C° 0 mm 5 mps 748 mmHg 73%
    13:00 +14°C° 0 mm 5 mps 748 mmHg 72%
    14:00 +15°C° 0 mm 5 mps 748 mmHg 72%
    15:00 +15°C° 0 mm 5 mps 748 mmHg 72%
    16:00 +15°C° 0 mm 5 mps 748 mmHg 75%
    17:00 +14°C° 0 mm 5 mps 748 mmHg 79%
    18:00 +13°C° 0 mm 4 mps 748 mmHg 82%
    19:00 +13°C° 1.2 mm 4 mps 748 mmHg 84%
    20:00 +12°C° 1.2 mm 3 mps 749 mmHg 86%
    21:00 +12°C° 1.2 mm 3 mps 749 mmHg 89%
    22:00 +12°C° 0.1 mm 2 mps 749 mmHg 89%
    23:00 +10°C° 0.1 mm 2 mps 749 mmHg 90%

    Day after tomorrow, 22 October, Tuesday

    Time Temperature Precipitation Wind Pressure Humidity
    00:00 +10°C° 0.1 mm 2 mps 749 mmHg 90%
    01:00 +9°C° 0 mm 2 mps 750 mmHg 91%
    02:00 +9°C° 0 mm 2 mps 751 mmHg 92%
    03:00 +8°C° 0 mm 2 mps 751 mmHg 93%
    04:00 +9°C° 0 mm 1 mps 752 mmHg 93%
    05:00 +8°C° 0 mm 1 mps 752 mmHg 94%
    06:00 +8°C° 0 mm 1 mps 752 mmHg 94%
    07:00 +8°C° 0 mm 1 mps 753 mmHg 93%
    08:00 +9°C° 0 mm 1 mps 753 mmHg 92%
    09:00 +9°C° 0 mm 1 mps 753 mmHg 91%
    10:00 +9°C° 0 mm 1 mps 753 mmHg 87%
    11:00 +10°C° 0 mm 1 mps 754 mmHg 84%
    12:00 +10°C° 0 mm 1 mps 754 mmHg 81%
    13:00 +11°C° 0 mm 1 mps 754 mmHg 79%
    14:00 +11°C° 0 mm 1 mps 754 mmHg 77%
    15:00 +11°C° 0 mm 1 mps 753 mmHg 75%
    16:00 +10°C° 0 mm 1 mps 753 mmHg 76%
    17:00 +9°C° 0 mm 2 mps 753 mmHg 78%
    18:00 +9°C° 0 mm 2 mps 753 mmHg 79%
    19:00 +8°C° 0 mm 2 mps 753 mmHg 82%
    20:00 +7°C° 0 mm 2 mps 753 mmHg 85%
    21:00 +7°C° 0 mm 2 mps 752 mmHg 87%
    22:00 +7°C° 0 mm 3 mps 752 mmHg 86%
    23:00 +7°C° 0 mm 3 mps 752 mmHg 84%

    23 October, Wednesday

    Time Temperature Precipitation Wind Pressure Humidity
    00:00 +7°C° 0 mm 4 mps 751 mmHg 83%
    01:00 +7°C° 0 mm 4 mps 751 mmHg 83%
    02:00 +8°C° 0 mm 4 mps 751 mmHg 83%
    03:00 +8°C° 0 mm 5 mps 751 mmHg 84%
    04:00 +9°C° 0 mm 5 mps 750 mmHg 87%
    05:00 +9°C° 0 mm 5 mps 750 mmHg 90%
    06:00 +9°C° 0 mm 5 mps 749 mmHg 93%
    07:00 +9°C° 0 mm 5 mps 749 mmHg 92%
    08:00 +10°C° 0 mm 5 mps 749 mmHg 91%
    09:00 +10°C° 0 mm 5 mps 749 mmHg 90%
    10:00 +12°C° 0 mm 5 mps 748 mmHg 86%
    11:00 +13°C° 0 mm 5 mps 748 mmHg 82%
    12:00 +14°C° 0 mm 5 mps 748 mmHg 78%
    13:00 +14°C° 0 mm 5 mps 748 mmHg 78%
    14:00 +15°C° 0 mm 4 mps 748 mmHg 78%
    15:00 +15°C° 0 mm 4 mps 748 mmHg 78%
    16:00 +14°C° 0 mm 4 mps 748 mmHg 81%
    17:00 +14°C° 0 mm 3 mps 748 mmHg 84%
    18:00 +13°C° 0 mm 3 mps 748 mmHg 87%
    19:00 +14°C° 0 mm 2 mps 748 mmHg 88%
    20:00 +14°C° 0 mm 2 mps 748 mmHg 90%
    21:00 +14°C° 0 mm 2 mps 749 mmHg 91%
    22:00 +13°C° 0 mm 2 mps 749 mmHg 90%
    23:00 +13°C° 0 mm 1 mps 749 mmHg 90%

    24 October, Thursday

    Time Temperature Precipitation Wind Pressure Humidity
    00:00 +13°C° 0 mm 1 mps 749 mmHg 90%
    01:00 +13°C° 0 mm 1 mps 749 mmHg 88%
    02:00 +12°C° 0 mm 1 mps 749 mmHg 87%
    03:00 +12°C° 0 mm 1 mps 749 mmHg 86%
    04:00 +12°C° 0 mm 1 mps 749 mmHg 85%
    05:00 +12°C° 0 mm 1 mps 750 mmHg 85%
    06:00 +11°C° 0 mm 1 mps 750 mmHg 85%
    07:00 +11°C° 0 mm 1 mps 750 mmHg 84%
    08:00 +11°C° 0 mm 1 mps 750 mmHg 83%
    09:00 +11°C° 0 mm 1 mps 750 mmHg 81%
    10:00 +12°C° 0 mm 1 mps 750 mmHg 77%
    11:00 +13°C° 0 mm 1 mps 750 mmHg 73%
    12:00 +13°C° 0 mm 1 mps 751 mmHg 68%
    13:00 +13°C° 0 mm 1 mps 751 mmHg 67%
    14:00 +14°C° 0 mm 1 mps 751 mmHg 67%
    15:00 +14°C° 0 mm 1 mps 751 mmHg 66%
    16:00 +13°C° 0 mm 1 mps 751 mmHg 69%
    17:00 +12°C° 0 mm 1 mps 751 mmHg 73%
    18:00 +11°C° 0 mm 1 mps 751 mmHg 76%
    19:00 +11°C° 0 mm 1 mps 751 mmHg 78%
    20:00 +10°C° 0 mm 1 mps 751 mmHg 80%
    21:00 +10°C° 0 mm 1 mps 752 mmHg 82%
    22:00 +8°C° 0 mm 0 mps 752 mmHg 83%
    23:00 +8°C° 0 mm 0 mps 752 mmHg 84%

    25 October, Friday

    Time Temperature Precipitation Wind Pressure Humidity
    00:00 +8°C° 0 mm 0 mps 752 mmHg 86%
    01:00 +8°C° 0 mm 0 mps 752 mmHg 86%
    02:00 +7°C° 0 mm 0 mps 752 mmHg 87%
    03:00 +7°C° 0 mm 0 mps 752 mmHg 88%
    04:00 +7°C° 0 mm 0 mps 752 mmHg 88%
    05:00 +7°C° 0 mm 0 mps 752 mmHg 89%
    06:00 +7°C° 0 mm 0 mps 752 mmHg 89%
    07:00 +7°C° 0 mm 0 mps 752 mmHg 89%
    08:00 +8°C° 0 mm 0 mps 753 mmHg 88%
    09:00 +9°C° 0 mm 1 mps 753 mmHg 87%
    10:00 +10°C° 0 mm 1 mps 753 mmHg 84%
    11:00 +11°C° 0 mm 1 mps 753 mmHg 80%
    12:00 +13°C° 0 mm 1 mps 753 mmHg 77%
    13:00 +13°C° 0 mm 1 mps 753 mmHg 78%
    14:00 +14°C° 0 mm 1 mps 753 mmHg 78%
    15:00 +14°C° 0 mm 1 mps 752 mmHg 79%
    16:00 +13°C° 0 mm 2 mps 752 mmHg 83%
    17:00 +13°C° 0 mm 2 mps 752 mmHg 87%
    18:00 +12°C° 0 mm 2 mps 752 mmHg 91%
    19:00 +12°C° 0 mm 2 mps 752 mmHg 91%
    20:00 +12°C° 0 mm 2 mps 752 mmHg 92%
    21:00 +12°C° 0 mm 2 mps 752 mmHg 92%
    22:00 +10°C° 0 mm 2 mps 751 mmHg 92%
    23:00 +10°C° 0 mm 3 mps 751 mmHg 93%
    Show more